Puyallup, WA

10:33 PM PST on January 22, 2018 (GMT -0800)
Pierce County - Thun Field

Weather History for KPLU - March, 2013

Change the Weather History Date:

Thursday, March 7, 2013

  Actual Average (KTCM) Record (KTCM)
Temperature  
Mean Temperature 42 °F -  
Max Temperature 53 °F 49 °F 68 °F (2001)
Min Temperature 32 °F 33 °F 25 °F (1974)
Degree Days  
Heating Degree Days 22    
Moisture  
Dew Point 38 °F    
Average Humidity 89    
Maximum Humidity 100    
Minimum Humidity 51    
Precipitation  
Precipitation 0.43 in - - ()
Sea Level Pressure  
Sea Level Pressure 30.02 in    
Wind  
Wind Speed 0 mph (WSW)    
Max Wind Speed 6 mph    
Max Gust Speed -    
Visibility 7 miles    
Events Fog , Rain    
Averages and records for this station are not official NWS values.
T = Trace of Precipitation, MM = Missing Value Source: NWS Daily Summary

Daily Weather History Graph

Daily Weather History Graph

Search for Another Location

Airport or City:

Trip Planner

Search our weather history database for the weather conditions in past years. The results will help you decide how hot, cold, wet, or windy it might be!

Date:

Astronomy

Mar. 07, 2013 Rise Set
Actual Time 6:37 AM PST 6:03 PM PST
Civil Twilight 6:06 AM PST 6:34 PM PST
Nautical Twilight 5:31 AM PST 7:09 PM PST
Astronomical Twilight 4:55 AM PST 7:45 PM PST
Moon 3:55 AM PST (3/7) 1:44 PM PST (3/7)
Length of Visible Light 12h 27m
Length of Day
11h 26m
Waning Crescent, 19% of the Moon is Illuminated
Mar 7
Waning Crescent
Mar 11
New
Mar 19
First Quarter
Mar 27
Full
Apr 2
Last Quarter

Hourly Weather History & Observations

Time (PST) Temp. Dew Point Humidity Pressure Visibility Wind Dir Wind Speed Gust Speed Precip Events Conditions
12:15 AM 39.2 °F 39.2 °F 100% 29.91 in 7.0 mi Calm Calm - 0.01 in Rain Light Rain
12:35 AM 39.2 °F 39.2 °F 100% 29.91 in 5.0 mi Calm Calm - 0.02 in Rain Light Rain
12:55 AM 39.2 °F 39.2 °F 100% 29.92 in 5.0 mi Calm Calm - 0.04 in Rain Light Rain
1:15 AM 39.2 °F 39.2 °F 100% 29.93 in 4.0 mi Calm Calm - 0.01 in Rain Light Rain
1:35 AM 39.2 °F 39.2 °F 100% 29.93 in 9.0 mi Calm Calm - 0.01 in Rain Light Rain
1:55 AM 39.2 °F 39.2 °F 100% 29.94 in 8.0 mi Calm Calm - 0.01 in Rain Light Rain
2:15 AM 39.2 °F 39.2 °F 100% 29.95 in 5.0 mi Calm Calm - 0.01 in Rain Light Rain
2:35 AM 39.2 °F 39.2 °F 100% 29.95 in 5.0 mi Calm Calm - 0.02 in Rain Light Rain
2:55 AM 39.2 °F 39.2 °F 100% 29.95 in 6.0 mi Calm Calm - 0.03 in Rain Light Rain
3:15 AM 39.2 °F 39.2 °F 100% 29.95 in 8.0 mi Calm Calm - 0.01 in   Overcast
3:35 AM 39.2 °F 39.2 °F 100% 29.96 in 2.5 mi Calm Calm - 0.02 in Rain Light Rain
3:55 AM 39.2 °F 39.2 °F 100% 29.96 in 3.0 mi Calm Calm - 0.04 in Rain Light Rain
4:15 AM 39.2 °F 39.2 °F 100% 29.96 in 7.0 mi Calm Calm - N/A Rain Light Rain
4:35 AM 39.2 °F 39.2 °F 100% 29.96 in 9.0 mi Calm Calm - N/A   Mostly Cloudy
4:55 AM 39.2 °F 39.2 °F 100% 29.96 in 9.0 mi Calm Calm - N/A   Mostly Cloudy
5:15 AM 39.2 °F 39.2 °F 100% 29.97 in 8.0 mi Calm Calm - N/A   Mostly Cloudy
5:35 AM 39.2 °F 39.2 °F 100% 29.98 in 10.0 mi Calm Calm - N/A   Mostly Cloudy
6:15 AM 39.2 °F 39.2 °F 100% 29.98 in 10.0 mi Calm Calm - N/A   Mostly Cloudy
6:35 AM 39.2 °F 39.2 °F 100% 29.99 in 10.0 mi Calm Calm - N/A   Mostly Cloudy
6:55 AM 39.2 °F 39.2 °F 100% 29.99 in 10.0 mi Calm Calm - N/A   Scattered Clouds
7:15 AM 39.2 °F 39.2 °F 100% 30.00 in 10.0 mi Calm Calm - N/A   Scattered Clouds
7:35 AM 41.0 °F 39.2 °F 93% 30.01 in 10.0 mi Calm Calm - N/A   Mostly Cloudy
7:55 AM 41.0 °F 39.2 °F 93% 30.01 in 10.0 mi Calm Calm - N/A   Overcast
8:15 AM 41.0 °F 39.2 °F 93% 30.02 in 10.0 mi Calm Calm - N/A   Overcast
8:35 AM 42.8 °F 39.2 °F 87% 30.02 in 10.0 mi Calm Calm - N/A   Overcast
8:55 AM 44.6 °F 39.2 °F 81% 30.03 in 10.0 mi Calm Calm - N/A   Mostly Cloudy
9:15 AM 44.6 °F 41.0 °F 87% 30.04 in 10.0 mi Calm Calm - N/A   Mostly Cloudy
9:35 AM 44.6 °F 39.2 °F 81% 30.04 in 10.0 mi Calm Calm - N/A   Mostly Cloudy
9:55 AM 46.4 °F 41.0 °F 81% 30.05 in 7.0 mi Calm Calm - N/A   Mostly Cloudy
10:15 AM 44.6 °F 41.0 °F 87% 30.05 in 5.0 mi Calm Calm - N/A Rain Light Rain
10:35 AM 46.4 °F 41.0 °F 81% 30.05 in 10.0 mi Calm Calm - N/A   Mostly Cloudy
10:55 AM 46.4 °F 39.2 °F 76% 30.05 in 10.0 mi Calm Calm - N/A   Mostly Cloudy
11:15 AM 48.2 °F 41.0 °F 76% 30.06 in 10.0 mi Calm Calm - N/A   Overcast
11:35 AM 48.2 °F 39.2 °F 71% 30.06 in 10.0 mi Calm Calm - N/A   Overcast
11:55 AM 48.2 °F 39.2 °F 71% 30.06 in 10.0 mi WSW 3.5 mph - N/A   Overcast
12:15 PM 50.0 °F 39.2 °F 66% 30.06 in 10.0 mi SW 4.6 mph - N/A   Mostly Cloudy
12:35 PM 50.0 °F 37.4 °F 62% 30.05 in 10.0 mi Calm Calm - N/A   Scattered Clouds
12:55 PM 51.8 °F 37.4 °F 58% 30.05 in 10.0 mi WSW 3.5 mph - N/A   Mostly Cloudy
1:15 PM 50.0 °F 37.4 °F 62% 30.05 in 10.0 mi Calm Calm - N/A   Overcast
1:35 PM 51.8 °F 35.6 °F 54% 30.04 in 10.0 mi WNW 5.8 mph - N/A   Mostly Cloudy
1:55 PM 53.6 °F 35.6 °F 51% 30.04 in 10.0 mi Calm Calm - N/A   Mostly Cloudy
2:15 PM 51.8 °F 37.4 °F 58% 30.04 in 10.0 mi Calm Calm - N/A   Mostly Cloudy
2:35 PM 53.6 °F 37.4 °F 54% 30.04 in 10.0 mi Calm Calm - N/A   Scattered Clouds
2:55 PM 53.6 °F 35.6 °F 51% 30.04 in 10.0 mi Calm Calm - N/A   Scattered Clouds
3:15 PM 51.8 °F 37.4 °F 58% 30.04 in 10.0 mi Calm Calm - N/A   Scattered Clouds
3:35 PM 50.0 °F 35.6 °F 58% 30.04 in 10.0 mi Calm Calm - N/A   Mostly Cloudy
3:55 PM 50.0 °F 37.4 °F 62% 30.04 in 10.0 mi Calm Calm - N/A   Scattered Clouds
5:35 PM 42.8 °F 41.0 °F 93% 30.06 in 1.8 mi Calm Calm - 0.16 in Rain Heavy Rain
5:55 PM 41.0 °F 41.0 °F 100% 30.06 in 2.0 mi Calm Calm - 0.22 in Rain Light Rain
6:15 PM 42.8 °F 41.0 °F 93% 30.06 in 5.0 mi Calm Calm - 0.04 in Rain Rain
6:35 PM 41.0 °F 41.0 °F 100% 30.06 in 3.0 mi Calm Calm - 0.07 in Rain Light Rain
6:55 PM 41.0 °F 41.0 °F 100% 30.07 in 4.0 mi Calm Calm - 0.09 in Rain Light Rain
7:15 PM 41.0 °F 41.0 °F 100% 30.07 in 10.0 mi Calm Calm - N/A Rain Light Rain
7:35 PM 41.0 °F 41.0 °F 100% 30.07 in 10.0 mi Calm Calm - N/A   Mostly Cloudy
7:55 PM 39.2 °F 39.2 °F 100% 30.07 in 1.2 mi Calm Calm - N/A   Mostly Cloudy
8:15 PM 39.2 °F 39.2 °F 100% 30.07 in 7.0 mi Calm Calm - N/A   Mostly Cloudy
8:35 PM 39.2 °F 39.2 °F 100% 30.07 in 9.0 mi Calm Calm - N/A   Mostly Cloudy
8:55 PM 37.4 °F 37.4 °F 100% 30.07 in 1.0 mi Calm Calm - N/A   Mostly Cloudy
9:15 PM 35.6 °F 35.6 °F 100% 30.07 in 0.5 mi Calm Calm - N/A Rain Light Rain
9:35 PM 35.6 °F 35.6 °F 100% 30.08 in 0.5 mi Calm Calm - N/A Fog Fog
9:55 PM 35.6 °F 35.6 °F 100% 30.08 in 0.2 mi Calm Calm - N/A Fog Fog
10:15 PM 35.6 °F 35.6 °F 100% 30.08 in 0.5 mi Calm Calm - N/A Fog Fog
10:35 PM 35.6 °F 35.6 °F 100% 30.08 in 0.5 mi Calm Calm - N/A Fog Fog
10:55 PM 33.8 °F 33.8 °F 100% 30.08 in 0.8 mi Calm Calm - N/A   Mostly Cloudy
11:15 PM 32.0 °F 32.0 °F 100% 30.08 in 1.8 mi Calm Calm - N/A   Mostly Cloudy
11:35 PM 32.0 °F 32.0 °F 100% 30.08 in 0.2 mi Calm Calm - N/A Fog Fog
11:55 PM 32.0 °F 32.0 °F 100% 30.08 in 0.5 mi Calm Calm - N/A Fog Fog